Miles City, MT

2:29 AM MST on February 11, 2016 (GMT -0700)
Wiley

Weather History for KMLS - August, 2014

Change the Weather History Date:

Sunday, August 3, 2014

  Actual Average Record
Temperature  
Mean Temperature 80 °F 75 °F  
Max Temperature 92 °F 90 °F 106 °F (1947)
Min Temperature 68 °F 61 °F 44 °F (1978)
Degree Days  
Heating Degree Days 0 0  
Month to date heating degree days 0 0  
Since 1 June heating degree days 95 101  
Since 1 July heating degree days 1 12  
Cooling Degree Days 15 11  
Month to date cooling degree days 39 33  
Year to date cooling degree days 394 448  
Since 1 June cooling degree days 360 428  
Growing Degree Days 30 (Base 50)    
Moisture  
Dew Point 56 °F    
Average Humidity 51    
Maximum Humidity 76    
Minimum Humidity 26    
Precipitation  
Precipitation 0.00 in 0.04 in 0.86 in (1942)
Month to date precipitation 0.00 0.12  
Year to date precipitation 9.77 8.97  
Sea Level Pressure  
Sea Level Pressure 29.99 in    
Wind  
Wind Speed 9 mph (ENE)    
Max Wind Speed 22 mph    
Max Gust Speed 27 mph    
Visibility 10 miles    
Events      
T = Trace of Precipitation, MM = Missing Value Source: NWS Daily Summary

Daily Weather History Graph

Daily Weather History Graph

Search for Another Location

Airport or City:

Trip Planner

Search our weather history database for the weather conditions in past years. The results will help you decide how hot, cold, wet, or windy it might be!

Date:

Astronomy

Aug. 03, 2014 Rise Set
Actual Time 5:47 AM MDT 8:31 PM MDT
Civil Twilight 5:12 AM MDT 9:05 PM MDT
Nautical Twilight 4:28 AM MDT 9:49 PM MDT
Astronomical Twilight 3:36 AM MDT 10:40 PM MDT
Moon 1:39 PM MDT (8/3) No Moon Set
Length of Visible Light 15h 53m
Length of Day
14h 44m
Waxing Crescent, 47% of the Moon is Illuminated
Aug 3
Waxing Crescent
Aug 3
First Quarter
Aug 10
Full
Aug 17
Last Quarter
Aug 25
New

Hourly Weather History & Observations

Time (MDT) Temp. Heat Index Dew Point Humidity Pressure Visibility Wind Dir Wind Speed Gust Speed Precip Events Conditions
12:53 AM 73.0 °F - 51.1 °F 46% 30.02 in 10.0 mi ESE 5.8 mph - N/A   Clear
2:53 AM 72.0 °F - 53.1 °F 51% 30.02 in 10.0 mi North 8.1 mph - N/A   Clear
3:53 AM 71.1 °F - 53.1 °F 53% 30.02 in 10.0 mi NE 9.2 mph - N/A   Scattered Clouds
4:53 AM 69.1 °F - 57.0 °F 65% 30.01 in 10.0 mi NE 17.3 mph - N/A   Partly Cloudy
5:53 AM 68.0 °F - 57.9 °F 70% 30.03 in 10.0 mi ENE 13.8 mph - N/A   Partly Cloudy
6:53 AM 68.0 °F - 60.1 °F 76% 30.04 in 10.0 mi NE 13.8 mph - N/A   Scattered Clouds
7:53 AM 69.1 °F - 60.1 °F 73% 30.04 in 10.0 mi ENE 10.4 mph - N/A   Clear
8:53 AM 73.9 °F - 60.1 °F 62% 30.04 in 10.0 mi NE 11.5 mph - N/A   Clear
9:53 AM 77.0 °F - 60.1 °F 56% 30.04 in 10.0 mi NE 12.7 mph - N/A   Clear
10:53 AM 80.1 °F 80.7 °F 59.0 °F 48% 30.02 in 10.0 mi ENE 8.1 mph - N/A   Clear
11:53 AM 84.9 °F 83.6 °F 55.0 °F 36% 30.01 in 10.0 mi Variable 3.5 mph - N/A   Clear
12:53 PM 86.0 °F 84.2 °F 54.0 °F 33% 29.99 in 10.0 mi North - - N/A   Clear
1:53 PM 88.0 °F 85.9 °F 54.0 °F 31% 29.98 in 10.0 mi Variable 3.5 mph - N/A   Clear
2:53 PM 89.1 °F - 51.1 °F 27% 29.96 in 10.0 mi Calm Calm - N/A   Clear
3:53 PM 90.0 °F - 52.0 °F 27% 29.94 in 10.0 mi Variable 3.5 mph - N/A   Clear
4:53 PM 91.0 °F - 52.0 °F 26% 29.92 in 10.0 mi Calm Calm - N/A   Clear
5:53 PM 91.0 °F 88.5 °F 53.1 °F 27% 29.92 in 10.0 mi NNE 6.9 mph - N/A   Clear
6:53 PM 90.0 °F - 52.0 °F 27% 29.93 in 10.0 mi NE 12.7 mph - N/A   Partly Cloudy
8:53 PM 82.0 °F 82.4 °F 60.1 °F 47% 29.94 in 10.0 mi East 12.7 mph - N/A   Clear
9:53 PM 79.0 °F - 59.0 °F 50% 29.97 in 10.0 mi East 11.5 mph - N/A   Clear
11:53 PM 75.9 °F - 52.0 °F 43% 29.95 in 10.0 mi ESE 6.9 mph - N/A   Clear